Weather History for Jackson, WY

Change the Weather History Date:

Sunday, November 6, 2011

  Actual Average Record
Temperature  
Mean Temperature 24 °F -  
Max Temperature 28 °F 43 °F 62 °F (1999)
Min Temperature 19 °F 19 °F -4 °F (1961)
Degree Days  
Heating Degree Days 42    
Moisture  
Dew Point 15 °F    
Average Humidity 74    
Maximum Humidity 93    
Minimum Humidity 58    
Precipitation  
Precipitation 0.00 in - - ()
Sea Level Pressure  
Sea Level Pressure 29.83 in    
Wind  
Wind Speed 10 mph (SSW)    
Max Wind Speed 17 mph    
Max Gust Speed 21 mph    
Visibility 8 miles    
Events Snow    
Averages and records for this station are not official NWS values.
T = Trace of Precipitation, MM = Missing Value Source: NWS Daily Summary

Daily Weather History Graph

Daily Weather History Graph

Search for Another Location

Airport:

Trip Planner

Search our weather history database for the weather conditions in past years. The results will help you decide how hot, cold, wet, or windy it might be!

Date:

Astronomy

Nov. 06, 2011 Rise Set
Actual Time 7:04 AM MST 5:07 PM MST
Civil Twilight 6:34 AM MST 5:37 PM MST
Nautical Twilight 6:00 AM MST 6:11 PM MST
Astronomical Twilight 5:27 AM MST 6:45 PM MST
Moon 2:58 PM MST (11/6) 3:08 AM MST (11/6)
Length of Visible Light 11h 03m
Length of Day
10h 02m
Waxing Gibbous, 86% of the Moon is Illuminated
Nov 6
Waxing Gibbous
Nov 10
Full
Nov 18
Last Quarter
Nov 24
New
Dec 2
First Quarter

Hourly Weather History & Observations

Time (MST) Temp. Windchill Dew Point Humidity Pressure Visibility Wind Dir Wind Speed Gust Speed Precip Events Conditions
12:15 AM 19.4 °F 8.6 °F 8.6 °F 63% 29.77 in 10.0 mi South 9.2 mph - N/A   Mostly Cloudy
12:35 AM 21.2 °F 8.9 °F 8.6 °F 58% 29.76 in 10.0 mi South 12.7 mph - N/A   Overcast
12:55 AM 21.2 °F 8.3 °F 8.6 °F 58% 29.76 in 10.0 mi South 13.8 mph - N/A   Overcast
1:15 AM 21.2 °F 7.3 °F 8.6 °F 58% 29.76 in 10.0 mi South 16.1 mph - N/A   Overcast
1:35 AM 21.2 °F 8.9 °F 10.4 °F 63% 29.76 in 10.0 mi South 12.7 mph - N/A   Overcast
1:55 AM 21.2 °F 9.5 °F 10.4 °F 63% 29.76 in 10.0 mi South 11.5 mph - N/A   Overcast
1:15 AM 21.2 °F 8.3 °F 10.4 °F 63% 29.76 in 10.0 mi South 13.8 mph - N/A   Overcast
1:35 AM 21.2 °F 8.9 °F 10.4 °F 63% 29.76 in 10.0 mi SSE 12.7 mph - N/A   Overcast
1:55 AM 21.2 °F 12.6 °F 10.4 °F 63% 29.76 in 10.0 mi SSE 6.9 mph - N/A   Overcast
2:15 AM 21.2 °F 16.4 °F 10.4 °F 63% 29.76 in 10.0 mi SW 3.5 mph - N/A   Overcast
2:35 AM 21.2 °F 10.9 °F 10.4 °F 63% 29.76 in 10.0 mi SSW 9.2 mph - N/A   Overcast
2:55 AM 21.2 °F 10.9 °F 12.2 °F 68% 29.76 in 8.0 mi SW 9.2 mph - N/A   Overcast
3:15 AM 19.4 °F 10.4 °F 14.0 °F 80% 29.76 in 2.5 mi SW 6.9 mph - N/A   Overcast
3:35 AM 19.4 °F 10.4 °F 15.8 °F 86% 29.76 in 7.0 mi SW 6.9 mph - N/A   Overcast
3:55 AM 19.4 °F 11.5 °F 15.8 °F 86% 29.75 in 5.0 mi SSW 5.8 mph - N/A   Overcast
4:15 AM 19.4 °F 10.4 °F 15.8 °F 86% 29.75 in 6.0 mi SW 6.9 mph - N/A   Mostly Cloudy
4:35 AM 19.4 °F 11.5 °F 15.8 °F 86% 29.76 in 8.0 mi SW 5.8 mph - N/A   Overcast
4:55 AM 19.4 °F 11.5 °F 14.0 °F 80% 29.76 in 5.0 mi SW 5.8 mph - N/A   Overcast
5:15 AM 19.4 °F 12.8 °F 15.8 °F 86% 29.77 in 8.0 mi SW 4.6 mph - N/A   Overcast
5:35 AM 19.4 °F 12.8 °F 15.8 °F 86% 29.77 in 10.0 mi WSW 4.6 mph - N/A   Overcast
5:55 AM 19.4 °F 12.8 °F 15.8 °F 86% 29.77 in 10.0 mi West 4.6 mph - N/A   Overcast
6:15 AM 19.4 °F 14.3 °F 15.8 °F 86% 29.77 in 5.0 mi WSW 3.5 mph - N/A   Overcast
6:51 AM 21.2 °F 13.6 °F 15.8 °F 80% 29.78 in 10.0 mi SSW 5.8 mph - N/A Snow Light Snow
7:59 AM 21.2 °F 10.9 °F 15.8 °F 80% 29.80 in 5.0 mi South 9.2 mph - N/A Snow Light Snow
8:57 AM 23.0 °F 10.6 °F 15.8 °F 74% 29.81 in 6.0 mi South 13.8 mph - N/A Snow Light Snow
9:52 AM 24.8 °F 12.4 °F 15.8 °F 69% 29.83 in 3.0 mi South 15.0 mph - N/A Snow Light Snow
10:51 AM 26.6 °F 13.8 °F 15.8 °F 64% 29.84 in 8.0 mi South 17.3 mph - N/A   Overcast
11:51 AM 26.6 °F 14.7 °F 15.8 °F 64% 29.85 in 7.0 mi SSW 15.0 mph - N/A Snow Light Snow
12:55 PM 28.4 °F 17.0 °F 15.8 °F 59% 29.84 in 8.0 mi South 15.0 mph 20.7 mph N/A Snow Light Snow
1:57 PM 28.4 °F 18.5 °F 15.8 °F 59% 29.84 in 6.0 mi South 11.5 mph 17.3 mph N/A Snow Light Snow
2:52 PM 28.4 °F 17.5 °F 15.8 °F 59% 29.85 in 8.0 mi South 13.8 mph - N/A   Overcast
3:51 PM 28.4 °F 17.5 °F 17.6 °F 64% 29.86 in 8.0 mi South 13.8 mph - N/A   Mostly Cloudy
4:54 PM 26.6 °F 16.8 °F 17.6 °F 69% 29.88 in 8.0 mi South 10.4 mph - N/A   Overcast
5:51 PM 26.6 °F 18.2 °F 19.4 °F 74% 29.90 in 7.0 mi South 8.1 mph - N/A   Overcast
6:51 PM 26.6 °F 20.0 °F 19.4 °F 74% 29.92 in 8.0 mi SW 5.8 mph - N/A   Overcast
7:51 PM 26.6 °F 19.1 °F 19.4 °F 74% 29.94 in 7.0 mi SSW 6.9 mph - N/A   Overcast
8:50 PM 24.8 °F 16.9 °F 19.4 °F 80% 29.95 in 8.0 mi SW 6.9 mph - N/A   Overcast
8:55 PM 24.8 °F 17.9 °F 19.4 °F 80% 29.95 in 5.0 mi WSW 5.8 mph - N/A   Mostly Cloudy
9:15 PM 24.8 °F 16.1 °F 21.2 °F 86% 29.96 in 10.0 mi WSW 8.1 mph - N/A   Mostly Cloudy
9:35 PM 24.8 °F 16.9 °F 19.4 °F 80% 29.96 in 5.0 mi SW 6.9 mph - N/A   Overcast
9:55 PM 24.8 °F 16.1 °F 21.2 °F 86% 29.97 in 10.0 mi SW 8.1 mph - N/A   Overcast
10:15 PM 23.0 °F 14.7 °F 19.4 °F 86% 29.97 in 10.0 mi WSW 6.9 mph - N/A   Mostly Cloudy
10:35 PM 21.2 °F 12.6 °F 19.4 °F 93% 29.97 in 10.0 mi WSW 6.9 mph - N/A   Mostly Cloudy
10:55 PM 21.2 °F - 17.6 °F 86% 29.98 in 10.0 mi Calm Calm - N/A   Mostly Cloudy